Location: Antin
(43.3330°N, 0.2804°E)
Time: 21:58:49
(UTC+00:00)

Spot 2 - Pass Details

Date: 16 October 2021
Orbit: 570 x 772 km, 98.7° (Epoch: 03 December)

Event Time Altitude Azimuth Distance (km) Brightness Sun altitude
Rises 18:10:43 0° 152° (SSE) 2,761 7.1 -11.1°
Reaches altitude 10° 18:12:51 10° 148° (SSE) 1,874 6.2 -11.4°
Maximum altitude 18:16:46 52° 71° (ENE) 729 4.1 -12.2°
Drops below altitude 10° 18:20:50 10° 356° (N) 1,946 6.7 -12.9°
Sets 18:23:06 0° 351° (N) 2,879 7.6 -13.3°
